sat.trackr.live / text

‹ back to catalog

STARLINK-31345

NORAD 58941 · 2024-027L

PAYLOAD ACTIVE UNKNOWN

§ Identity

Operator
Country
US
Launch date
2024-02-10
Launch site
AFWTR
Launch vehicle
Mass (kg)
RCS (m²)

Purposes: comms

External: N2YO · Heavens-Above · Gunter

§ Orbital elements

Epoch: 2026-09-20T01:02:56.911200Z

Period
93.85 min
Inclination
53.1603°
Eccentricity
0.0001271
Mean motion
15.34392853 rev/d
Perigee alt
461.9 km
Apogee alt
463.6 km
Semi-major
6,840.9 km
B*
3.3573e-5
RAAN
125.5320°
Arg perigee
81.3694°
Mean anomaly
278.7452°
Rev number
14,710

§ Raw data

STARLINK-313451 58941U 24027L   26263.04371425  .00000758  00000+0  33573-4 0  99912 58941  53.1603 125.5320 0001271  81.3694 278.7452 15.34392853147108

JSON: /api/v1/satellites/58941 · /tle

For live sub-satellite position, see the globe view (requires WebGL).

§ Visibility from observer

Set your observer location to see the next 7 days of passes ≥ 10°. The values pass through the URL so the page stays shareable.

No JS? Fill the form by hand. The geolocation button needs JavaScript.